TimeCST,TemperatureF,Dew PointF,Humidity,Sea Level PressureIn,VisibilityMPH,Wind Direction,Wind SpeedMPH,Gust SpeedMPH,PrecipitationIn,Events,Conditions,WindDirDegrees,DateUTC
12:52 AM,36.0,28.0,73,29.87,10.0,NW,17.3,-,N/A,,Clear,310,2013-02-26 06:52:00
1:52 AM,36.0,27.0,70,29.89,10.0,WNW,16.1,-,N/A,,Clear,300,2013-02-26 07:52:00
2:52 AM,35.1,26.1,70,29.88,10.0,NW,16.1,-,N/A,,Clear,310,2013-02-26 08:52:00
3:52 AM,34.0,26.1,73,29.88,10.0,NW,10.4,-,N/A,,Clear,310,2013-02-26 09:52:00
4:52 AM,32.0,25.0,75,29.89,10.0,WNW,10.4,-,N/A,,Clear,290,2013-02-26 10:52:00
5:52 AM,30.9,25.0,79,29.91,10.0,WNW,9.2,-,N/A,,Clear,290,2013-02-26 11:52:00
6:52 AM,30.9,24.1,76,29.90,10.0,WNW,9.2,-,N/A,,Clear,300,2013-02-26 12:52:00
7:52 AM,33.1,24.1,70,29.91,10.0,NW,9.2,-,N/A,,Clear,310,2013-02-26 13:52:00
8:52 AM,37.9,25.0,60,29.92,10.0,NW,12.7,-,N/A,,Clear,320,2013-02-26 14:52:00
9:52 AM,39.9,26.1,58,29.94,10.0,NW,8.1,-,N/A,,Clear,320,2013-02-26 15:52:00
10:52 AM,45.0,27.0,49,29.93,10.0,NW,9.2,-,N/A,,Clear,320,2013-02-26 16:52:00
11:52 AM,46.9,28.0,48,29.92,10.0,Calm,Calm,-,N/A,,Clear,0,2013-02-26 17:52:00
12:52 PM,50.0,27.0,41,29.89,10.0,Variable,3.5,-,N/A,,Clear,0,2013-02-26 18:52:00
1:52 PM,52.0,26.1,37,29.86,10.0,Variable,3.5,-,N/A,,Clear,0,2013-02-26 19:52:00
2:52 PM,54.0,26.1,34,29.83,10.0,Calm,Calm,-,N/A,,Clear,0,2013-02-26 20:52:00
3:52 PM,57.0,25.0,29,29.81,10.0,Calm,Calm,-,N/A,,Clear,0,2013-02-26 21:52:00
4:52 PM,57.9,25.0,28,29.79,10.0,Calm,Calm,-,N/A,,Clear,0,2013-02-26 22:52:00
5:52 PM,57.9,25.0,28,29.78,10.0,East,6.9,-,N/A,,Clear,90,2013-02-26 23:52:00
6:52 PM,54.0,27.0,35,29.79,10.0,East,4.6,-,N/A,,Clear,90,2013-02-27 00:52:00
7:52 PM,48.9,26.1,41,29.80,10.0,East,10.4,-,N/A,,Clear,80,2013-02-27 01:52:00
8:52 PM,46.9,26.1,44,29.81,10.0,East,10.4,-,N/A,,Clear,100,2013-02-27 02:52:00
9:52 PM,46.0,26.1,46,29.81,10.0,ESE,15.0,-,N/A,,Clear,110,2013-02-27 03:52:00
11:52 PM,44.1,25.0,47,29.78,10.0,SE,11.5,-,N/A,,Clear,130,2013-02-27 05:52:00